NOAA 16 DEB, 41199

Orbit data source: Space-Track

NOAA 16 DEB, 41199 is space debris in SSO originally from a launch on Thu, 21 Sep 2000 UTC launched from the Air Force Western Test Range (AFWTR). Debris objects in space refer to the collection of defunct objects orbiting the Earth. Examples of debris include non-operational satellites, rocket bodies, and fragments generated from explosions, collisions, or faulty payload assembly.

Loading next visibility...
Identifier
41199, 2000-055DC
Orbit
SSO
Country
Flag of USUS
Related business
Manufacturer
Unknown
Mission
Spacecraft
Bus & Motor
Unknown
Mass
Unknown
Launch date (UTC)
2000-09-21 (26 years ago)
Launch vehicle
Unknown
Launch site
Air Force Western Test Range (AFWTR)
Object type
Payload
Rocket body
Debris
Shape & HBR
Unknown shape, 0.1 m
Radar Cross Section
Medium (>0.1 m² and <1 m²)

Expand to show TLE details & history
Last TLE update: 1 week ago

TLE from 1 week ago
0 NOAA 16 DEB
1 41199U 00055DC  26149.88269230  .00003835  00000-0  20222-2 0  9993
2 41199  98.7390 165.6226 0059458  24.1624 336.2318 14.13579541536583
Epoch: 2026-05-29T21:11Z
TLE epoch observation values (Epoch: 2026-05-29T21:11:04.614Z)
Latitude
0.00002°
Longitude
-39.55332°
Altitude
810.771 km
Speed
7.468 km/s
True Right ascension
11h 02m 29s
True Declination
0° 00' 00"
Sunlit
Object was in daylight at epoch
Visualization orbit readout
Latitude
Unknown
Longitude
Unknown
Altitude
Unknown
Speed
Unknown
Apparent Right ascension
Unknown
Apparent Declination
Unknown
Sunlit
N/A
Visualization observer readout
Local Sidereal Time
19:14:32
Azimuth
Unknown
Elevation
Unknown
Doppler factor
Unknown
Orbital elements
Apogee altitude
887.26 km
Perigee altitude
801.374 km
Semi-major axis
7,222.454 km
Eccentricity
0.00595
Inclination
98.739°
RAAN
165.6226°
Arg. of periapsis
24.1624°
True anomaly
335.95532°
Mean anomaly
336.2318°
Eccentric anomaly
336.09375°
Mean motion
3.53603 °/min
Orbital period
101.81 mins
BSTAR
0.0020222
Loading maneuver chart data...
Computing Atmospheric mass density...
Loading historical data...
Loading historical data...
Loading historical data...
Loading historical data...
Loading historical data...
Loading historical data...
Loading historical data...

Documentation

Showing up to 5 results
|